User: anonymous   Login
Location: Castelbiague
(43.0361°N, 0.9246°E)
Time: 05:10:02
(UTC+00:00)
Language:

Aureole 1 Rocket - Orbit

View from above orbital plane
View from above orbital plane
View from above satellite
View from above satellite

Ground track
Ground track

The orbit data is extracted from the following two-line orbital elements,

1 05730U 71119B   21261.46919677  .00000994  00000-0  65657-4 0  9990
2 05730  73.8899 262.5264 0684445 197.8335 159.7682 14.05654963423779
Epoch (UTC): 18 September 2021 11:15:38
Eccentricity: 0.0684445
inclination: 73.8899°
perigee height: 378 km
apogee height: 1370 km
right ascension of ascending node: 262.5264°
argument of perigee: 197.8335°
revolutions per day: 14.05654963
mean anomaly at epoch: 159.7682°
orbit number at epoch: 42377

The dashed part of the orbit path shows where the satellite is in the earth's shadow,  

DLR